Regional Weather Roundup
Issued by NWS

Home | Current Version | Previous Version | Graphics & Text | Print | Product List | Glossary Off
Versions: 1 2 3 4 5 6 7 8 9 10 11 12 13 14 15 16 17 18 19 20 21 22 23 24 25 26 27 28 29 30 31 32 33 34 35 36 37 38 39 40 41 42 43 44 45 46 47 48 49 50

000
ASUS43 KDTX 010401
RWRMI
MICHIGAN HOURLY REGIONAL WEATHER ROUNDUP
NATIONAL WEATHER SERVICE DETROIT/PONTIAC MI
1200 AM EDT TUE SEP 01 2015

NOTE: "FAIR" INDICATES FEW OR NO CLOUDS BELOW 12,000 FEET WITH NO
SIGNIFICANT WEATHER AND/OR OBSTRUCTION TO VISIBILITY.

MIZ047>049-052>055-059>063-066>070-074>076-081>083-010500-
SOUTHEAST LOWER MICHIGAN

CITY           SKY/WX    TMP DP  RH WIND       PRES   REMARKS
ADRIAN         CLEAR     66  64  93 CALM      30.09S FOG
ALMA           FOG       63  63  99 CALM      30.06F VSB 1/4
ANN ARBOR      FOG       64  63  96 CALM      30.08R VSB 1/4
BAD AXE        CLEAR     61  61  98 CALM      30.06S FOG
CARO           MOCLDY    60  60 100 CALM      30.06S FOG
DETROIT CITY   CLEAR     72  65  78 CALM      30.07R
DETROIT        CLEAR     72  70  93 CALM      30.07S FOG
FLINT          CLEAR     66  63  90 CALM      30.07S
GROSSE ILE       N/A     72  70  94 CALM      30.06S FOG
HILLSDALE      FOG       66  66 100 CALM      30.10S VSB 3/4
HOWELL           N/A     66  65  96 CALM      30.08S FOG

CITY           SKY/WX    TMP DP  RH WIND       PRES   REMARKS
JACKSON        CLEAR     65  64  97 SW3       30.09S FOG
LAMBERTVILLE   CLEAR     67  64  90 CALM      30.08S FOG
LANSING        CLEAR     67  65  93 CALM      30.08S
LAPEER         FOG       61  61 100 CALM      30.07S VSB 1/2
MASON          FOG       63  60  91 S5        30.08S VSB 1/4
MONROE         CLOUDY    67  66  96 CALM      30.06F FOG
MT. CLEMENS    CLEAR     66  63  91 N2        30.05S
PONTIAC        CLEAR     68  66  93 CALM      30.07S
PORT HOPE        N/A     68  65  90 SW6       30.03S
PORT HURON     FOG       61  61 100 CALM      30.07R VSB 1/4
TRI CITIES     CLEAR     67  64  90 SW5       30.06S FOG
MIDLAND        FAIR      64  63  97 CALM      30.05S
TROY           CLEAR     71  66  84 CALM      30.09R
SAGINAW HB     CLEAR     63  63 100 S5        30.05S FOG
$$
MIZ043>046-050>051-056>058-064>065-071>073-077>080-010500-
SOUTHWEST LOWER MICHIGAN

CITY           SKY/WX    TMP DP  RH WIND       PRES   REMARKS
BATTLE CREEK   CLEAR     67  65  93 CALM      30.09S
BENTON HARBOR  CLEAR     67  65  93 CALM      30.06R FOG
BIG RAPIDS     FOG       61  60  97 CALM      30.06S VSB 1
COLDWATER      CLEAR     66  66 100 CALM      30.09S FOG
FREMONT        FOG       62  62 100 CALM      30.05S VSB 1/4
HOLLAND        FOG       64  63  96 CALM      30.06S VSB 1/4
GRAND RAPIDS   CLEAR     67  65  93 S5        30.07S
IONIA          FAIR      65  65  99 SW3       30.06S FOG
KALAMAZOO      CLEAR     68  65  90 CALM      30.08S FOG
LUDINGTON      CLEAR     63  60  92 CALM      30.04F
MARSHALL       FOG       64  63  97 CALM      30.08S VSB 1/4
MOUNT PLEASANT FOG       65  63  94 CALM      30.05S VSB 1
MUSKEGON       CLEAR     66  62  87 CALM      30.05S FOG
SOUTH HAVEN    CLEAR     65  64  95 CALM      30.06R FOG
$$
MIZ016>042-010500-
NORTHERN LOWER MICHIGAN

CITY           SKY/WX    TMP DP  RH WIND       PRES   REMARKS
ALPENA         FOG       61  60  97 CALM      30.02F VSB 1/2
BEAVER ISLAND  CLEAR     67  65  93 SW9       30.00S
BELLAIRE       PTCLDY    63  62  95 CALM      30.02S FOG
CADILLAC       FOG       62  60  95 CALM      30.06S VSB<1/4
CHARLEVOIX     CLEAR     68  65  92 SW5       30.05S
FRANKFORT      CLEAR     68  65  89 CALM      30.03S
GAYLORD        CLEAR     66  65  96 SW5       30.05S
GRAYLING       FOG       61  60  98 CALM      30.06S VSB 1/2
HARBOR SPRINGS CLEAR     63  62  97 CALM      30.02S
HOUGHTON LAKE  CLEAR     66  65  96 SW3       30.06F
MANISTEE       CLEAR     61  57  88 CALM      30.04F VSB 1
OSCODA         CLEAR     65  65  97 SW3       30.02F FOG
PELLSTON       FOG       59  59 100 CALM      30.02F VSB 1/2
ROGERS CITY    CLEAR     64  62  95 CALM      30.02F FOG
TRAVERSE CITY  CLEAR     68  64  87 CALM      30.02S
$$
MIZ007>008-015-010500-
EASTERN UPPER MICHIGAN

CITY           SKY/WX    TMP DP  RH WIND       PRES   REMARKS
KINROSS        CLEAR     63  63 100 S6        30.01S
MACKINAC ISLAN CLEAR     65  64  94 S7        30.01F
NEWBERRY       CLOUDY    66  65  97 S10       29.98F FOG
S. S. MARIE    CLOUDY    64  63  96 SE7       30.00F FOG
$$
MIZ004>006-011>014-085-010500-
CENTRAL UPPER MICHIGAN

CITY           SKY/WX    TMP DP  RH WIND       PRES   REMARKS
MANISTIQUE     CLOUDY    64  64  97 SW9       29.99R FOG
ESCANABA       CLEAR     66  64  94 S7        29.97S
MENOMINEE      CLEAR     68  64  88 SW6       29.98S
SAWYER-GWINN   CLEAR     69  65  87 SW8       29.97S
$$
MIZ001>003-009>011-084-010500-
WESTERN UPPER MICHIGAN

CITY           SKY/WX    TMP DP  RH WIND       PRES   REMARKS
IRON MOUNTAIN  CLEAR     67  64  90 SE5       29.97F
HOUGHTON       CLEAR     71  63  75 CALM      29.91S
IRONWOOD       CLEAR     72  68  88 S9G16     29.90S
$$

ABBREVIATIONS USED IN REMARKS
   TC - TEMPERATURE IN CELSIUS
  WCI - WIND CHILL INDEX
   HX - HEAT INDEX
  VSB - VISIBILITY




USA.gov is the U.S. government's official web portal to all federal, state and local government web resources and services.